Weather History for KANJ - April, 2013

Change the Weather History Date:

Monday, April 1, 2013

  Actual Average Record
Temperature  
Mean Temperature 20 °F 33 °F  
Max Temperature 24 °F 42 °F 67 °F (1945)
Min Temperature 16 °F 25 °F -13 °F (1923)
Degree Days  
Heating Degree Days 45 32  
Month to date heating degree days 45 32  
Since 1 July heating degree days 6991 7358  
Cooling Degree Days 0 0  
Month to date cooling degree days 0 0  
Year to date cooling degree days 0 0  
Moisture  
Dew Point 13 °F    
Average Humidity 71    
Maximum Humidity 84    
Minimum Humidity 57    
Precipitation  
Precipitation 0.16 in 0.08 in 0.68 in (2008)
Month to date precipitation 0.16 0.08  
Year to date precipitation 8.85 5.56  
Snow  
Snow 2.20 in 0.40 in 5.30 in (1950)
Month to date snowfall 2.2 0.4  
Since 1 July snowfall 141.8 114.0  
Snow Depth 19.00 in    
Sea Level Pressure  
Sea Level Pressure 29.89 in    
Wind  
Wind Speed 13 mph (NW)    
Max Wind Speed 24 mph    
Max Gust Speed 35 mph    
Visibility 3 miles    
Events Fog , Snow    
T = Trace of Precipitation, MM = Missing Value Source: NWS Daily Summary

Daily Weather History Graph

Daily Weather History Graph

Search for Another Location

Airport or City:

Trip Planner

Search our weather history database for the weather conditions in past years. The results will help you decide how hot, cold, wet, or windy it might be!

Date:

Astronomy

Apr. 01, 2013 Rise Set
Actual Time 7:16 AM EDT 8:06 PM EDT
Civil Twilight 6:45 AM EDT 8:37 PM EDT
Nautical Twilight 6:09 AM EDT 9:13 PM EDT
Astronomical Twilight 5:31 AM EDT 9:52 PM EDT
Moon 1:29 AM EDT (4/1) 10:46 AM EDT (4/1)
Length of Visible Light 13h 51m
Length of Day
12h 50m
Waning Gibbous, 67% of the Moon is Illuminated
Apr 1
Waning Gibbous
Apr 3
Last Quarter
Apr 10
New
Apr 18
First Quarter
Apr 25
Full

Hourly Weather History & Observations

Time (EDT) Temp. Windchill Dew Point Humidity Pressure Visibility Wind Dir Wind Speed Gust Speed Precip Events Conditions
12:05 AM 23.0 °F 8.3 °F 16.0 °F 74% 29.61 in 1.8 mi NW 19.6 mph 33.4 mph 0.00 in Snow Light Snow
12:12 AM 23.0 °F 9.6 °F 17.1 °F 78% 29.61 in 1.0 mi WNW 16.1 mph 33.4 mph 0.00 in Snow Light Snow
12:31 AM 23.0 °F 9.2 °F 16.0 °F 74% 29.61 in 3.0 mi NW 17.3 mph 27.6 mph 0.00 in Snow Light Snow
12:40 AM 23.0 °F 7.2 °F 16.0 °F 74% 29.61 in 1.5 mi NW 23.0 mph 33.4 mph 0.00 in Snow Light Snow
12:55 AM 21.9 °F 8.2 °F 15.1 °F 75% 29.64 in 2.0 mi NW 16.1 mph 26.5 mph 0.00 in Snow Light Snow
1:11 AM 21.9 °F 8.2 °F 16.0 °F 78% 29.63 in 1.0 mi NW 16.1 mph 27.6 mph 0.00 in Snow Light Snow
1:42 AM 21.9 °F 5.8 °F 17.1 °F 82% 29.63 in 0.8 mi NW 23.0 mph 31.1 mph 0.00 in Snow Light Snow
1:55 AM 21.0 °F 5.0 °F 14.0 °F 74% 29.66 in 1.2 mi NW 21.9 mph 33.4 mph 0.01 in Snow Light Snow
2:41 AM 19.9 °F 6.2 °F 12.0 °F 71% 29.66 in 2.5 mi NNW 15.0 mph 28.8 mph 0.00 in Snow Light Snow
2:55 AM 19.9 °F 4.8 °F 12.0 °F 71% 29.69 in 7.0 mi NNW 18.4 mph 28.8 mph 0.00 in   Overcast
3:55 AM 19.9 °F 6.2 °F 9.0 °F 62% 29.72 in 9.0 mi NNW 15.0 mph 25.3 mph 0.00 in   Overcast
4:55 AM 19.0 °F 5.6 °F 10.0 °F 68% 29.75 in 9.0 mi NNW 13.8 mph 20.7 mph 0.00 in   Overcast
5:55 AM 18.0 °F 2.6 °F 9.0 °F 68% 29.79 in 5.0 mi NNW 17.3 mph 27.6 mph 0.00 in Snow Light Snow
6:55 AM 17.1 °F 3.6 °F 9.0 °F 71% 29.81 in 7.0 mi NW 12.7 mph 19.6 mph 0.00 in Snow Light Snow
7:10 AM 17.1 °F 5.8 °F 9.0 °F 71% 29.80 in 5.0 mi North 9.2 mph 20.7 mph 0.00 in Snow Light Snow
7:27 AM 17.1 °F 3.6 °F 8.1 °F 68% 29.81 in 9.0 mi NNW 12.7 mph 21.9 mph 0.00 in   Scattered Clouds
7:55 AM 17.1 °F 3.0 °F 7.0 °F 65% 29.84 in 10.0 mi NNW 13.8 mph - 0.00 in   Mostly Cloudy
8:55 AM 18.0 °F 7.7 °F 8.1 °F 65% 29.87 in 4.0 mi NNW 8.1 mph - 0.00 in Snow Light Snow
9:24 AM 18.0 °F 5.4 °F 9.0 °F 68% 29.83 in 3.0 mi NNW 11.5 mph - 0.00 in Snow Light Snow
9:41 AM 18.0 °F 5.4 °F 9.0 °F 68% 29.85 in 2.5 mi NNW 11.5 mph - 0.00 in Snow Light Snow
9:55 AM 18.0 °F 6.9 °F 10.0 °F 71% 29.88 in 1.2 mi North 9.2 mph - 0.01 in Snow Light Snow
10:55 AM 19.0 °F 6.8 °F 12.0 °F 74% 29.89 in 0.8 mi NNW 11.5 mph - 0.01 in Snow Light Snow
11:06 AM 19.0 °F 8.2 °F 12.0 °F 74% 29.87 in 1.2 mi NW 9.2 mph - 0.00 in Snow Light Snow
11:43 AM 19.9 °F 7.9 °F 12.0 °F 71% 29.87 in 3.0 mi NW 11.5 mph - 0.00 in Snow Light Snow
11:52 AM 19.4 °F 5.0 °F 12.2 °F 74% 29.87 in 2.0 mi NW 16.1 mph 23.0 mph 0.00 in Snow Light Snow
11:55 AM 19.9 °F 6.2 °F 10.9 °F 68% 29.91 in 2.5 mi NW 15.0 mph 23.0 mph 0.00 in Snow Light Snow
12:07 PM 19.0 °F 5.0 °F 12.0 °F 74% 29.88 in 0.8 mi NW 15.0 mph 27.6 mph 0.00 in Snow Light Snow
12:17 PM 19.9 °F 5.7 °F 12.0 °F 71% 29.89 in 2.0 mi NW 16.1 mph 24.2 mph 0.00 in Snow Light Snow
12:40 PM 19.9 °F 2.8 °F 8.1 °F 60% 29.89 in 3.0 mi NW 24.2 mph 33.4 mph 0.00 in   Overcast
12:55 PM 21.0 °F 5.7 °F 9.0 °F 60% 29.92 in 4.0 mi NW 19.6 mph 34.5 mph 0.00 in   Overcast
1:55 PM 21.9 °F 8.2 °F 10.0 °F 60% 29.94 in 8.0 mi NW 16.1 mph 28.8 mph 0.00 in   Overcast
2:32 PM 23.0 °F 8.7 °F 10.0 °F 58% 29.90 in 10.0 mi NW 18.4 mph 26.5 mph 0.00 in   Mostly Cloudy
2:55 PM 23.0 °F 9.6 °F 10.0 °F 58% 29.94 in 10.0 mi NW 16.1 mph 27.6 mph 0.00 in   Mostly Cloudy
3:24 PM 23.0 °F 8.3 °F 12.0 °F 63% 29.92 in 6.0 mi NW 19.6 mph 25.3 mph 0.00 in Snow Light Snow
3:33 PM 21.9 °F 9.2 °F 12.9 °F 68% 29.92 in 1.8 mi WNW 13.8 mph 26.5 mph 0.00 in Snow Light Snow
3:41 PM 21.0 °F 8.1 °F 15.1 °F 78% 29.92 in 0.5 mi WNW 13.8 mph 25.3 mph 0.00 in Snow Snow
3:55 PM 21.9 °F 8.7 °F 15.1 °F 75% 29.96 in 0.5 mi NW 15.0 mph 21.9 mph 0.01 in Snow Snow
4:09 PM 21.0 °F 8.6 °F 16.0 °F 81% 29.93 in 0.5 mi WNW 12.7 mph 21.9 mph 0.00 in Snow Snow
4:14 PM 21.9 °F 8.2 °F 14.0 °F 72% 29.93 in 1.0 mi WNW 16.1 mph 26.5 mph 0.00 in Snow Light Snow
4:23 PM 21.9 °F 8.2 °F 12.0 °F 66% 29.94 in 1.0 mi WNW 16.1 mph 33.4 mph 0.00 in Snow Light Snow
4:32 PM 23.0 °F 9.2 °F 9.0 °F 55% 29.93 in 3.0 mi NW 17.3 mph 32.2 mph 0.00 in Snow Light Snow
4:51 PM 23.0 °F 8.3 °F 10.4 °F 59% 29.93 in 1.8 mi WNW 19.6 mph 32.2 mph 0.00 in Snow Light Snow
4:55 PM 21.9 °F 5.8 °F 10.9 °F 63% 29.96 in 1.0 mi NW 23.0 mph 32.2 mph 0.00 in Snow Light Snow
5:11 PM 21.9 °F 7.8 °F 10.9 °F 63% 29.93 in 3.0 mi WNW 17.3 mph 31.1 mph 0.00 in   Overcast
5:20 PM 21.9 °F 6.5 °F 10.9 °F 63% 29.94 in 2.5 mi NW 20.7 mph 29.9 mph 0.00 in Snow Light Snow
5:26 PM 21.0 °F 6.2 °F 12.9 °F 71% 29.95 in 0.8 mi NW 18.4 mph 29.9 mph 0.00 in Snow Light Snow
5:44 PM 21.9 °F 7.3 °F 12.0 °F 66% 29.95 in 2.0 mi NW 18.4 mph 28.8 mph 0.00 in Snow Light Snow
5:55 PM 21.9 °F 7.3 °F 12.9 °F 68% 29.98 in 1.8 mi WNW 18.4 mph 29.9 mph 0.00 in Snow Light Snow
6:01 PM 21.0 °F 6.2 °F 10.9 °F 65% 29.95 in 3.0 mi NW 18.4 mph 29.9 mph 0.00 in   Overcast
6:11 PM 21.0 °F 5.7 °F 12.0 °F 68% 29.95 in 2.5 mi NW 19.6 mph 29.9 mph 0.00 in Snow Light Snow
6:19 PM 21.0 °F 7.6 °F 12.9 °F 71% 29.95 in 1.0 mi WNW 15.0 mph 27.6 mph 0.00 in Snow Light Snow
6:26 PM 19.9 °F 7.9 °F 15.1 °F 81% 29.96 in 0.5 mi WNW 11.5 mph 20.7 mph 0.00 in Snow Snow
6:36 PM 19.9 °F 6.7 °F 16.0 °F 85% 29.96 in 0.2 mi WNW 13.8 mph 28.8 mph 0.01 in Fog , Snow Light Snow
6:55 PM 21.0 °F 8.6 °F 15.1 °F 78% 30.00 in 0.8 mi NW 12.7 mph 23.0 mph 0.02 in Snow Light Snow
7:02 PM 21.0 °F 7.1 °F 15.1 °F 78% 29.97 in 1.0 mi NW 16.1 mph 24.2 mph 0.00 in Snow Light Snow
7:13 PM 21.0 °F 5.0 °F 15.1 °F 78% 29.97 in 0.5 mi NW 21.9 mph 31.1 mph 0.00 in Snow Snow
7:28 PM 19.9 °F 4.8 °F 14.0 °F 78% 29.97 in 0.2 mi NW 18.4 mph 31.1 mph 0.01 in Snow Heavy Snow
7:35 PM 19.9 °F 6.2 °F 15.1 °F 81% 29.97 in 0.2 mi WNW 15.0 mph 28.8 mph 0.01 in Snow Heavy Snow
7:43 PM 19.9 °F 4.8 °F 16.0 °F 85% 29.97 in 0.2 mi NW 18.4 mph 28.8 mph 0.02 in Fog , Snow Snow
7:51 PM 19.4 °F 6.6 °F 15.8 °F 86% 29.97 in 0.5 mi NW 12.7 mph 28.8 mph 0.03 in Snow Snow
7:55 PM 19.9 °F 8.6 °F 15.1 °F 81% 30.00 in 2.5 mi NW 10.4 mph 20.7 mph 0.03 in Snow Light Snow
8:06 PM 19.9 °F 6.7 °F 14.0 °F 78% 29.97 in 0.8 mi NW 13.8 mph - 0.00 in Snow Light Snow
8:24 PM 19.9 °F 8.6 °F 16.0 °F 85% 29.97 in 1.0 mi NW 10.4 mph 19.6 mph 0.01 in Snow Light Snow
8:37 PM 19.9 °F 7.9 °F 15.1 °F 81% 29.97 in 0.8 mi NW 11.5 mph 21.9 mph 0.01 in Snow Light Snow
8:44 PM 19.9 °F 6.2 °F 16.0 °F 85% 29.97 in 0.5 mi NW 15.0 mph - 0.02 in Fog , Snow Snow
8:55 PM 19.9 °F 5.7 °F 16.0 °F 85% 30.00 in 0.8 mi NW 16.1 mph 21.9 mph 0.03 in Snow Light Snow
9:15 PM 19.9 °F 8.6 °F 16.0 °F 85% 29.97 in 0.8 mi NW 10.4 mph - 0.02 in Snow Light Snow
9:22 PM 19.9 °F 8.6 °F 16.0 °F 85% 29.97 in 0.5 mi NW 10.4 mph - 0.03 in Fog , Snow Snow
9:37 PM 21.0 °F 8.6 °F 16.0 °F 81% 29.97 in 1.0 mi NW 12.7 mph 21.9 mph 0.03 in Snow Light Snow
9:45 PM 21.0 °F 9.3 °F 15.1 °F 78% 29.97 in 3.0 mi NW 11.5 mph - 0.03 in Snow Light Snow
9:55 PM 21.0 °F 11.4 °F 14.0 °F 74% 30.01 in 9.0 mi NW 8.1 mph - 0.03 in   Overcast
10:55 PM 21.9 °F 13.4 °F 12.9 °F 68% 30.01 in 9.0 mi NNW 6.9 mph - 0.00 in Snow Light Snow
11:09 PM 21.0 °F 10.6 °F 12.9 °F 71% 29.98 in 2.5 mi NW 9.2 mph - 0.01 in Snow Light Snow
11:22 PM 21.0 °F 12.4 °F 14.0 °F 74% 29.98 in 1.8 mi NW 6.9 mph - 0.01 in Snow Light Snow
11:27 PM 21.0 °F 13.4 °F 14.0 °F 74% 29.98 in 3.0 mi WNW 5.8 mph - 0.01 in Snow Light Snow
11:44 PM 21.0 °F 16.2 °F 14.0 °F 74% 29.97 in 8.0 mi WNW 3.5 mph - 0.01 in Snow Light Snow
11:55 PM 21.0 °F 16.2 °F 12.9 °F 71% 30.00 in 8.0 mi WNW 3.5 mph - 0.01 in   Overcast